User: anonymous   Login
Location: Arrodets-la-Barthe
(43.0306°N, 0.2829°E)
Time: 15:09:02
(UTC+00:00)
Language:

CSL-04 Debris - Orbit

View from above orbital plane
View from above orbital plane
View from above satellite
View from above satellite

Ground track
Ground track

The orbit data is extracted from the following two-line orbital elements,

1 25733U 99025D   22024.10356537  .00000142  00000-0  93682-4 0  9994
2 25733  98.8859  64.4340 0015751  96.8676 263.4291 14.16545817172673
Epoch (UTC): 24 January 2022 02:29:08
Eccentricity: 0.0015751
inclination: 98.8859°
perigee height: 825 km
apogee height: 848 km
right ascension of ascending node: 64.4340°
argument of perigee: 96.8676°
revolutions per day: 14.16545817
mean anomaly at epoch: 263.4291°
orbit number at epoch: 17267

The dashed part of the orbit path shows where the satellite is in the earth's shadow,  

DLR